Location: Boston
(42.3580°N, 71.0600°W)
Time: 14:47:21
(UTC-05:00)

Tiangong 1 - Pass Details

Date: 15 October 2017
Orbit: 275 x 301 km, 42.8° (Epoch: 15 December)

Event Time Altitude Azimuth Distance (km) Brightness Sun altitude
Rises 18:36:38 0° 280° (W) 2,097 6.6 -7.2°
Reaches altitude 10° 18:38:41 10° 274° (W) 1,249 5.3 -7.6°
Maximum altitude 18:41:24 46° 199° (SSW) 443 1.6 -8.1°
Drops below altitude 10° 18:44:01 10° 124° (SE) 1,212 3.1 -8.6°
Enters shadow 18:44:18 - 123° (ESE) 1,325 3.3 -8.6°
